Weather History for Fort Leonard Wood, MO

Change the Weather History Date:

Sunday, November 3, 2013

  Actual Average Record
Temperature  
Mean Temperature 44 °F -  
Max Temperature 59 °F 58 °F 78 °F (2003)
Min Temperature 30 °F 43 °F 23 °F (2006)
Degree Days  
Heating Degree Days 20    
Moisture  
Dew Point 36 °F    
Average Humidity 72    
Maximum Humidity 100    
Minimum Humidity 45    
Precipitation  
Precipitation 0.00 in - - ()
Sea Level Pressure  
Sea Level Pressure 30.18 in    
Wind  
Wind Speed 6 mph (SSE)    
Max Wind Speed 15 mph    
Max Gust Speed 23 mph    
Visibility 10 miles    
Events      
Averages and records for this station are not official NWS values.
T = Trace of Precipitation, MM = Missing Value Source: NWS Daily Summary

Daily Weather History Graph

Daily Weather History Graph

Search for Another Location

Airport:

Trip Planner

Search our weather history database for the weather conditions in past years. The results will help you decide how hot, cold, wet, or windy it might be!

Date:

Astronomy

Nov. 03, 2013 Rise Set
Actual Time 6:36 AM CST 5:07 PM CST
Civil Twilight 6:08 AM CST 5:34 PM CST
Nautical Twilight 5:37 AM CST 6:05 PM CST
Astronomical Twilight 5:07 AM CST 6:36 PM CST
Moon 6:40 AM CST (11/3) 5:23 PM CST (11/3)
Length of Visible Light 11h 25m
Length of Day
10h 31m
Waxing Crescent, 0% of the Moon is Illuminated
Nov 3
Waxing Crescent
Nov 9
First Quarter
Nov 17
Full
Nov 25
Last Quarter
Dec 2
New

Hourly Weather History & Observations

Time (CST) Temp. Windchill Dew Point Humidity Pressure Visibility Wind Dir Wind Speed Gust Speed Precip Events Conditions
12:58 AM 35.8 °F - 35.6 °F 99% 30.23 in 8.0 mi South 1.2 mph - N/A   Clear
1:58 AM 34.0 °F - 33.6 °F 99% 30.23 in 10.0 mi SSE 2.3 mph - N/A   Clear
1:58 AM 34.5 °F - 34.5 °F 100% 30.25 in 10.0 mi Calm Calm - N/A   Clear
2:58 AM 34.0 °F - 34.0 °F 100% 30.25 in 6.0 mi Calm Calm - N/A   Clear
3:58 AM 31.6 °F - 31.6 °F 100% 30.25 in 10.0 mi SSE 2.3 mph - N/A   Clear
4:58 AM 30.9 °F 27.5 °F 30.9 °F 100% 30.25 in 10.0 mi SE 3.5 mph - N/A   Clear
5:58 AM 30.7 °F 27.3 °F 30.7 °F 100% 30.25 in 10.0 mi SE 3.5 mph - N/A   Clear
10:58 AM 53.8 °F - 37.8 °F 55% 30.25 in 10.0 mi SSE 11.5 mph 20.7 mph N/A   Clear
11:58 AM 56.7 °F - 38.7 °F 51% 30.21 in 10.0 mi SSE 11.5 mph - N/A   Clear
12:58 PM 57.4 °F - 37.4 °F 47% 30.17 in 10.0 mi SSE 10.4 mph 16.1 mph N/A   Clear
1:58 PM 57.9 °F - 36.7 °F 45% 30.15 in 10.0 mi SE 9.2 mph 20.7 mph N/A   Clear
2:58 PM 59.0 °F - 37.9 °F 46% 30.13 in 10.0 mi ESE 12.7 mph - N/A   Partly Cloudy
3:58 PM 57.4 °F - 36.5 °F 46% 30.14 in 10.0 mi SSE 13.8 mph - N/A   Clear
4:58 PM 53.6 °F - 37.8 °F 55% 30.13 in 10.0 mi SE 5.8 mph - N/A   Clear
5:58 PM 50.4 °F - 38.8 °F 65% 30.15 in 10.0 mi SE 8.1 mph - N/A   Clear
6:58 PM 50.9 °F - 38.8 °F 63% 30.14 in 10.0 mi SE 11.5 mph - N/A   Partly Cloudy
7:58 PM 50.4 °F - 39.0 °F 65% 30.12 in 10.0 mi SE 15.0 mph 19.6 mph N/A   Clear
8:58 PM 50.4 °F - 38.8 °F 65% 30.11 in 10.0 mi SSE 12.7 mph 23.0 mph N/A   Scattered Clouds
9:58 PM 50.2 °F - 39.0 °F 66% 30.12 in 10.0 mi SSE 15.0 mph 21.9 mph N/A   Scattered Clouds
10:58 PM 49.5 °F - 38.7 °F 66% 30.12 in 10.0 mi SSE 12.7 mph - N/A   Clear